Flag for U.S.A. Weather past 2 weeks in Fremont, California, U.S.A.

Now
60 °F

Clear.


Feels Like: 60 °F
Forecast: 54 / 81 °F
Wind: No wind

Location: Moffett Field

Current Time: Oct 1, 2014 at 8:02:29 AM

Latest Report: Oct 1, 2014 at 6:56 AM


Visibility: 10 mi

Pressure: 29.90 "Hg

Humidity: 90%

Dew point: 57 °F

Location of FremontLocation

Historic Weather in Fremont — Graph

°F

Fremont temperature yesterday

Maximum temperature yesterday: 75 °F (at 3:56 PM)
Minimum temperature yesterday: 57 °F (at 5:56 AM)
Average temperature yesterday: 65 °F

Past Weeks' High & Low Weather Summary

 TemperatureHumidityPressure
High83 °F (Sep 17, 5:56 PM)100% (Sep 25, 2:04 AM)30.07 "Hg (Sep 25, 2:04 AM)
Low57 °F (Sep 16, 6:56 AM)34% (Sep 16, 1:56 PM)29.74 "Hg (Sep 17, 5:56 PM)
Average67 °F74%29.93 "Hg
* Reported Sep 16 6:56 AM — Oct 1 6:56 AM, Fremont, Weather by CustomWeather, © 2014

Note: Actual official high and low records may vary slightly from our data, if they occured in-between our weather recording intervals... More about our weather records

Advertising

Fremont weather history for previous 24 hours

 ConditionsComfort  
Time TempWeatherWind HumidityBarometerVisibility
6:56 AM
Oct 1
60 °FClear.No wind90%29.90 "Hg10 mi
5:56 AM59 °FClear.No wind84%29.88 "Hg10 mi
4:56 AM58 °FClear.No wind90%29.87 "Hg10 mi
3:56 AM57 °FClear.No wind100%29.87 "Hg10 mi
2:56 AM59 °FClear.No wind90%29.87 "Hg10 mi
1:56 AM60 °FClear.3 mph96%29.87 "Hg10 mi
12:56 AM62 °FClear.No wind83%29.86 "Hg10 mi
11:56 PM
Sep 30
64 °FClear.No wind87%29.86 "Hg10 mi
10:56 PM65 °FClear.No wind85%29.86 "Hg10 mi
9:56 PM66 °FClear.No wind78%29.87 "Hg10 mi
8:56 PM67 °FClear.No wind79%29.87 "Hg10 mi
7:56 PM68 °FClear.6 mph84%29.86 "Hg10 mi
6:56 PM69 °FSunny.10 mph84%29.85 "Hg10 mi
5:56 PM71 °FSunny.9 mph59%29.86 "Hg10 mi
4:56 PM73 °FSunny.10 mph57%29.86 "Hg10 mi
3:56 PM75 °FSunny.12 mph54%29.87 "Hg10 mi
2:56 PM73 °FSunny.10 mph59%29.89 "Hg10 mi
1:56 PM73 °FSunny.12 mph57%29.91 "Hg10 mi
12:56 PM71 °FSunny.8 mph59%29.94 "Hg10 mi
11:56 AM69 °FSunny.3 mph63%29.96 "Hg10 mi
10:56 AM66 °FScattered clouds.6 mph78%29.98 "Hg10 mi
9:56 AM64 °FOvercast.3 mph94%29.99 "Hg10 mi
8:56 AM63 °FSunny.No wind87%29.99 "Hg10 mi
Weather by CustomWeather, © 2014

See weather overviewHow to use our weather pages